Location: Absher
(46.5583°N, 107.9840°W)
Time: 08:24:28
(UTC+00:00)

STRAND 1 - Pass Details

Date: 09 April 2023
Orbit: 767 x 779 km, 98.4° (Epoch: 03 June)

Event Time Altitude Azimuth Distance (km) Brightness Sun altitude
Rises 03:52:03 0° 358° (N) 3,250 ? -19.9°
Reaches altitude 10° 03:55:27 10° 334° (NNW) 2,318 ? -20.4°
Maximum altitude 03:57:59 14° 304° (NW) 2,049 ? -20.7°
Drops below altitude 10° 04:00:30 10° 274° (W) 2,311 ? -21.1°
Sets 04:03:54 0° 250° (WSW) 3,234 ? -21.5°
